Simultaneous Nadir Overpasses (SNOs) Predictions

Prediction of SNOs between GOES-16 and METOP-C Satellite Orbit:

Table of predicted SNOs for the next 14.0 days since TLE Epoch: 11/4/2022
Index Date Time (GOES-16) GOES-16 Lat,Lon METOP-C Lat,Lon Distance(km) Time Diff (sec)
1 11/05/2022 14:28:16 -0.06, -75.20 -0.13, -74.86 38.05 80
2 11/07/2022 02:49:58 0.06, -75.19 -0.87, -79.46 485.99 80
3 11/08/2022 02:26:38 0.06, -75.20 0.22, -74.46 83.96 80
4 11/09/2022 14:45:31 -0.05, -75.23 0.77, -79.03 432.74 80
5 11/10/2022 14:27:32 -0.05, -75.24 -0.31, -74.03 137.51 80
6 11/12/2022 02:46:32 0.04, -75.24 -0.71, -78.62 385.48 80
7 11/13/2022 02:23:13 0.04, -75.25 0.38, -73.62 185.07 80
8 11/14/2022 14:42:06 -0.03, -75.29 0.61, -78.19 330.88 80
9 11/15/2022 14:24:07 -0.03, -75.30 -0.48, -73.19 240.09 80
10 11/17/2022 02:43:07 0.03, -75.32 -0.52, -77.79 281.54 80
11 11/18/2022 02:19:47 0.02, -75.34 0.58, -72.79 289.81 80
